Location: Newark
(49.9819°N, 3.0344°E)
Time: 23:43:37
(UTC+00:00)

ISS - Visible Passes

Search period start: 24 January 2020 00:00
Search period end: 03 February 2020 00:00
Orbit: 415 x 423 km, 51.6° (Epoch: 25 January)

Date Brightness Start Highest point End Pass type
(mag) Time Alt. Az. Time Alt. Az. Time Alt. Az.
24 Jan -2.3 17:24:48 10° SSW 17:27:41 26° SE 17:30:00 13° E visible
24 Jan -2.2 19:00:50 10° WSW 19:02:58 36° WSW 19:02:58 36° WSW visible
25 Jan -3.8 18:13:21 10° WSW 18:16:43 71° SSE 18:17:29 49° E visible
25 Jan -0.2 19:50:15 10° W 19:50:27 11° W 19:50:27 11° W visible
26 Jan -3.3 17:25:56 10° SW 17:29:15 52° SSE 17:31:56 14° E visible
26 Jan -2.3 19:02:40 10° W 19:04:54 37° WNW 19:04:54 37° WNW visible
27 Jan -3.7 18:15:05 10° W 18:18:28 75° NNW 18:19:20 47° ENE visible
27 Jan -0.3 19:52:04 10° WNW 19:52:18 11° WNW 19:52:18 11° WNW visible
28 Jan -3.8 17:27:31 10° WSW 17:30:55 89° NNE 17:33:44 14° ENE visible
28 Jan -2.3 19:04:29 10° W 19:06:42 36° WNW 19:06:42 36° WNW visible
29 Jan -3.6 18:16:53 10° W 18:20:16 63° N 18:21:06 44° ENE visible
29 Jan -0.3 19:53:48 10° WNW 19:54:03 12° WNW 19:54:03 12° WNW visible
30 Jan -3.6 17:29:16 10° W 17:32:39 67° N 17:35:30 14° ENE visible
30 Jan -2.4 19:06:13 10° WNW 19:08:28 38° WNW 19:08:28 38° WNW visible
31 Jan -3.7 18:18:37 10° WNW 18:22:01 70° N 18:22:53 45° ENE visible
31 Jan -0.3 19:55:31 10° WNW 19:55:51 12° W 19:55:51 12° W visible
01 Feb -3.6 17:30:59 10° W 17:34:23 64° N 17:37:20 13° E visible
01 Feb -2.5 19:07:53 10° WNW 19:10:18 41° W 19:10:18 41° W visible
02 Feb -3.8 18:20:15 10° WNW 18:23:39 83° SSW 18:24:48 39° ESE visible
02 Feb -0.3 19:57:26 10° W 19:57:46 12° W 19:57:46 12° W visible
